Dewpoint
55 55 56 58 61 63 64 65 66 67 68 68 69 68 69 69 69 69 69 69 70 70 71 70 69 70 69 69 68 69 69 69 70 71 72 72 73 73 73 74 74 75 75 74 73 76 74 74 75 75 75 74 73 71 72 73 75 75 75 74 75 72 71 72 71 66 61 59 63 62 62 66 70 71 64 63 62 62 63 66 68 68 68 69 71
55 55 56 60 61 62 63 64 66 65 66 67 68 68 69 69 69 69 69 69 69 70 71 70 69 69 68 68 68 68 69 69 69 70 71 72 73 73 74 73 74 75 76 75 75 74 74 74 74 74 74 74 74 75 76 78 74 73 73 71 72 73 70 72 71 64 63 59 58 59 63 62 66 69 64 62 61 62 62 62 64 66 65 66 67
54 53 56 59 61 62 62 63 64 65 65 66 67 68 68 68 68 69 68 69 70 71 71 70 69 70 68 68 67 66 68 69 69 71 72 72 72 73 74 73 73 74 75 75 74 74 74 74 74 74 74 75 74 72 72 72 73 73 73 71 72 71 73 74 71 66 63 66 64 60 56 56 62 63 64 62 60 61 61 60 61 63 64 64 65
53 52 56 59 60 61 62 62 63 64 65 64 65 67 68 69 68 68 69 69 70 71 72 70 70 70 68 68 67 66 66 70 70 71 72 71 72 73 73 73 73 73 75 75 74 74 74 74 74 74 74 76 73 73 71 72 73 72 72 74 72 68 69 70 75 71 68 61 57 59 57 59 56 58 61 62 65 59 59 59 60 61 61 63 65
53 50 57 59 60 60 61 62 63 63 63 64 65 66 67 68 68 68 69 69 70 72 72 70 72 71 71 69 68 68 69 69 70 70 71 71 71 72 72 73 74 74 75 75 75 74 74 74 74 73 74 75 74 72 72 73 74 73 72 73 71 69 69 70 72 73 71 66 65 59 57 56 56 58 62 62 64 62 59 58 62 62 61 62 64
53 50 56 59 59 60 61 62 63 63 63 64 65 66 67 67 68 69 69 70 70 71 71 72 72 70 70 68 67 66 66 67 68 69 70 70 71 72 72 73 73 73 74 74 75 75 75 74 73 74 74 75 75 73 73 73 72 73 72 72 71 72 70 68 69 71 73 73 69 62 60 59 58 60 57 56 62 68 66 64 60 61 61 62 64
53 51 56 58 59 60 61 62 63 63 63 64 65 66 67 68 68 69 69 70 70 71 71 73 71 70 69 67 66 65 65 67 68 69 70 70 71 72 72 73 73 73 73 74 75 75 74 74 74 74 74 74 77 74 73 73 73 73 76 73 72 75 70 68 69 70 70 71 71 70 72 72 63 61 59 61 56 60 62 64 58 58 58 58 59
52 51 55 58 59 60 61 62 63 63 64 64 64 66 67 68 69 69 69 70 70 71 72 72 70 70 70 68 68 66 65 66 68 69 70 71 70 72 72 72 73 73 72 73 74 75 74 74 74 74 74 74 76 75 74 73 74 73 77 76 75 74 71 70 69 70 68 69 72 70 70 72 67 67 63 59 59 58 58 62 60 60 63 63 64
52 51 55 58 59 60 61 62 63 64 64 64 64 66 67 68 69 69 69 70 70 71 72 72 71 70 70 69 69 69 67 67 69 71 70 72 70 72 72 72 72 73 73 73 74 74 76 74 74 74 73 73 76 76 75 75 73 72 72 73 72 72 73 74 70 70 70 69 68 67 68 67 66 66 67 67 63 59 59 61 60 62 61 60 65
52 51 55 58 59 60 61 62 63 64 65 65 65 67 67 68 69 69 69 69 70 72 72 72 71 72 70 70 69 70 70 69 69 69 70 71 69 71 72 71 71 72 72 72 74 74 75 75 74 74 74 73 76 75 74 74 73 73 73 73 72 72 73 74 73 71 71 71 68 67 65 65 64 63 63 65 63 62 60 61 62 61 59 60 66
51 51 54 57 59 60 62 63 63 64 65 65 66 67 68 68 68 68 69 69 70 72 72 71 71 71 70 70 69 70 71 70 69 69 69 70 69 70 71 71 71 71 72 72 73 74 74 75 75 75 74 76 76 74 74 73 73 73 74 74 74 72 72 73 73 73 72 71 70 68 65 64 63 62 62 64 62 62 61 60 64 67 63 61 64
52 52 53 57 59 61 62 63 64 64 65 65 66 68 68 68 68 68 69 69 71 72 72 71 71 71 70 70 70 70 71 70 69 69 70 70 69 70 71 71 71 71 71 72 73 74 74 75 76 75 76 74 75 75 74 74 74 74 74 74 73 74 74 75 72 71 72 71 70 70 69 67 68 65 64 65 64 63 61 60 63 66 65 65 65
52 53 53 55 59 60 61 63 64 65 66 66 66 67 68 68 68 68 69 69 71 72 72 72 72 71 71 71 70 71 71 71 70 69 70 70 69 70 70 70 70 71 71 72 72 73 74 74 75 75 75 75 75 74 74 74 74 74 73 75 75 74 74 73 72 72 72 71 71 71 71 68 67 68 67 66 67 67 65 64 65 67 64 65 66
54 54 53 55 58 60 62 63 64 65 66 66 67 68 68 68 68 68 69 70 71 72 72 72 72 72 72 71 71 72 71 71 70 70 71 71 70 70 70 70 70 71 71 72 72 73 74 74 75 75 75 75 75 75 74 74 74 74 74 74 73 73 74 74 73 74 72 72 71 71 71 71 70 70 68 68 68 66 65 65 65 66 67 66 67
57 55 54 54 57 60 61 62 64 64 65 66 67 68 69 68 68 69 69 70 71 72 72 72 72 72 72 72 72 72 72 71 70 70 71 71 71 70 70 70 70 71 72 72 73 73 73 74 74 74 74 75 75 75 76 74 74 75 75 74 74 73 74 74 73 73 73 73 72 71 73 71 70 70 69 67 67 66 65 67 66 63 64 65 66
61 57 55 54 56 59 61 62 63 64 65 66 67 68 68 69 69 69 69 70 71 72 72 72 72 72 72 71 71 73 73 72 72 72 71 72 72 71 71 71 71 72 73 72 72 73 73 73 74 74 74 75 75 75 75 75 74 74 75 74 73 77 74 73 73 73 73 73 73 72 71 71 72 71 71 69 69 70 71 70 68 65 63 62 64
64 59 57 55 55 58 60 61 62 63 64 66 67 68 69 69 69 69 70 70 71 72 72 72 72 72 72 72 71 72 73 72 71 72 71 72 73 72 72 72 72 72 73 74 72 73 73 73 74 74 74 75 75 75 75 75 74 75 75 74 74 74 74 73 72 72 72 74 73 73 72 72 72 73 72 72 71 72 72 71 70 67 66 63 62
65 64 60 58 56 57 59 61 62 63 64 66 67 68 69 69 69 69 70 70 70 71 71 71 72 72 72 72 71 71 72 72 71 72 72 72 73 73 73 73 73 72 73 73 73 73 73 76 74 74 74 75 75 75 75 75 75 74 75 74 74 73 73 74 75 74 74 73 74 72 72 72 73 73 73 72 72 72 72 72 72 71 69 65 65
65 66 64 60 58 58 58 60 61 62 65 66 67 68 69 69 70 69 70 70 70 71 71 71 72 71 71 72 71 71 71 71 72 72 72 72 72 73 73 73 73 73 73 73 73 73 73 74 74 74 75 75 76 76 76 75 75 74 74 74 74 73 72 72 72 74 74 74 73 72 72 72 72 72 73 72 73 73 72 72 72 72 71 68 67
63 66 67 63 60 58 58 59 61 62 64 66 68 69 69 70 70 70 70 71 71 71 71 71 71 71 71 71 71 72 72 71 71 72 72 72 72 72 73 73 73 73 73 73 73 72 73 73 74 74 75 75 75 76 76 75 75 75 74 74 74 73 73 72 73 73 75 73 72 71 72 72 72 73 73 73 73 73 73 71 72 72 71 70 69
62 64 66 67 63 61 60 60 61 62 64 67 68 69 69 70 70 71 71 71 71 71 71 71 72 71 72 71 71 71 71 71 71 72 72 72 72 73 72 72 73 73 73 73 72 72 72 73 74 74 74 75 75 75 75 75 74 74 74 74 73 73 73 73 73 73 74 73 73 72 72 73 73 73 72 72 72 72 71 72 72 72 71 72 70
61 63 66 67 68 64 63 63 63 62 64 66 68 69 69 70 70 71 71 72 71 71 72 72 72 71 71 71 71 71 71 71 71 71 72 71 72 72 73 73 72 72 73 73 73 72 72 72 72 73 74 74 75 75 75 75 74 74 74 74 74 73 73 73 72 73 73 74 73 72 72 73 73 73 72 72 71 71 71 70 70 73 72 72 72
63 63 65 67 67 66 64 64 63 63 65 66 68 69 69 70 71 71 72 72 72 72 72 72 72 71 71 71 71 71 71 71 70 70 71 71 71 72 72 72 72 72 72 72 72 72 72 72 72 72 73 73 74 74 74 74 74 74 74 74 74 74 73 73 73 73 73 73 73 72 73 72 73 73 73 72 72 72 72 71 70 72 72 72 72
67 67 66 67 67 66 65 65 64 64 66 67 67 68 69 70 71 71 71 72 72 72 72 72 72 71 71 71 70 70 70 71 70 70 70 70 70 71 72 71 71 71 71 72 72 72 72 73 73 73 73 73 73 74 74 74 74 74 74 74 74 73 73 73 73 73 73 73 73 72 72 72 72 72 72 72 72 72 71 71 71 71 71 71 72
65 66 66 66 66 66 66 66 66 65 66 67 68 68 69 70 70 71 71 72 72 72 72 72 72 71 71 70 70 70 70 70 70 70 70 70 70 70 71 71 71 71 71 71 72 72 72 72 72 72 72 72 72 73 73 74 74 74 74 73 73 73 73 73 73 73 75 73 73 73 72 72 71 71 71 71 71 71 71 71 70 70 71 71 72
64 65 65 65 66 66 67 68 68 69 68 68 68 70 70 70 71 71 71 72 72 72 72 72 71 71 71 70 70 70 69 69 69 69 70 70 70 70 70 71 71 70 71 71 71 71 71 71 72 72 72 72 72 73 73 73 73 73 73 73 74 73 73 73 73 73 73 74 74 73 73 73 72 71 71 71 71 71 71 70 70 70 70 71 71
64 65 65 65 66 66 67 68 68 69 69 69 69 69 69 69 69 70 69 69 70 71 72 72 71 71 70 70 70 70 70 69 69 69 69 69 69 69 70 70 71 70 70 70 71 71 72 71 71 71 71 72 72 73 73 73 73 73 73 73 73 73 73 73 73 73 74 74 74 74 73 73 72 72 72 71 71 71 71 71 71 71 70 70 70
64 64 64 64 65 66 67 68 68 69 69 69 69 69 69 69 69 70 70 70 71 70 70 70 71 71 70 71 71 70 70 70 70 70 69 69 69 69 69 70 71 70 70 70 70 70 71 72 71 71 72 72 72 72 73 73 73 72 72 72 73 73 73 73 73 73 73 73 73 73 72 72 72 72 72 72 72 71 70 70 70 70 70 69 70
64 64 64 64 65 66 66 67 68 69 69 69 69 69 69 69 70 70 70 70 71 70 70 69 69 70 70 71 71 71 71 71 71 70 70 69 68 68 69 69 70 70 70 70 70 70 70 71 72 72 72 72 72 72 73 73 72 72 72 72 72 72 72 72 73 73 73 73 73 72 72 72 73 76 77 76 74 74 71 70 70 70 70 70 69
63 64 64 64 65 66 66 67 67 68 68 68 68 69 69 69 69 70 70 70 71 70 69 69 69 69 69 69 70 71 72 72 71 71 70 69 69 68 67 67 68 69 69 70 69 70 70 70 71 72 72 72 72 73 74 74 75 73 73 73 73 73 72 72 72 72 72 72 72 72 72 75 76 77 77 78 79 79 77 72 70 70 70 70 69
63 64 64 65 65 66 66 66 67 67 68 68 68 68 69 69 70 70 69 70 70 69 69 68 68 69 69 70 70 70 71 71 71 72 71 70 70 70 68 67 67 68 69 69 69 69 69 70 70 71 72 72 73 74 74 69 70 73 75 73 73 73 73 72 72 72 71 72 71 71 71 73 76 78 77 78 77 77 78 78 77 76 74 71 69
63 64 64 65 65 65 65 66 66 67 68 68 68 68 69 69 69 69 70 70 70 69 69 69 69 69 69 69 70 70 70 70 70 70 69 69 69 70 71 68 67 67 69 69 69 69 70 70 70 71 71 72 72 74 69 68 69 69 74 74 73 72 72 72 72 72 72 72 71 71 71 71 72 72 71 72 75 77 76 76 76 76 76 76 74
63 64 64 64 65 65 65 66 66 67 67 68 68 68 68 68 68 68 69 69 69 69 69 69 69 69 69 69 69 69 69 69 69 68 67 68 67 67 67 70 71 71 70 70 70 69 69 70 70 70 71 72 72 70 67 67 67 67 68 74 72 72 71 71 71 71 71 71 71 72 72 71 70 73 78 73 72 73 76 75 76 76 77 75 71
62 63 64 65 65 65 66 66 66 67 67 68 68 68 68 69 69 69 69 68 68 68 68 69 69 69 69 69 69 69 69 69 69 69 68 67 67 67 68 70 70 70 70 70 70 69 69 69 69 70 70 71 72 70 66 65 65 65 65 69 69 70 71 71 71 71 71 71 71 71 71 71 72 73 72 72 71 72 72 72 72 72 71 74 74
60 61 62 64 65 65 65 65 65 66 66 66 66 68 68 68 68 68 68 68 68 68 68 68 68 69 69 69 69 69 69 69 69 69 69 69 68 68 69 70 69 68 68 69 69 70 70 71 70 70 69 70 71 69 65 64 63 63 64 69 66 67 68 70 71 71 71 71 71 71 71 71 72 71 72 73 71 71 72 72 70 71 72 72 71
59 60 60 62 63 64 64 64 65 65 65 65 66 66 66 66 67 67 68 67 67 68 68 68 68 68 69 69 69 69 69 70 69 70 69 69 68 67 68 69 69 68 69 69 69 70 69 70 70 69 69 69 68 61 62 63 62 62 64 67 67 66 66 67 68 69 69 70 71 71 72 72 71 69 72 70 73 73 71 71 71 71 71 71 71
58 59 59 59 60 61 62 63 63 63 63 64 64 65 65 65 65 65 65 65 66 67 67 68 68 68 68 69 69 69 69 68 69 69 69 69 69 68 68 70 69 69 69 69 69 70 70 70 70 70 69 69 68 64 59 60 60 60 63 66 67 67 67 66 67 69 70 70 71 72 72 71 69 69 67 62 66 76 70 69 70 70 71 71 70
56 57 57 59 59 59 60 60 61 62 63 63 64 63 63 63 63 64 64 64 64 64 65 67 67 68 68 68 68 68 68 68 68 68 68 68 68 69 70 71 70 69 69 69 70 70 70 71 71 70 70 70 69 64 60 59 57 58 64 66 67 68 67 67 67 70 72 71 72 76 75 70 69 69 64 63 63 73 70 70 70 70 70 69 68
53 54 55 57 58 59 59 59 59 60 61 62 62 62 61 61 61 62 62 62 63 63 64 65 66 67 68 68 68 68 68 68 68 67 68 68 68 69 69 70 70 70 70 69 71 70 70 70 71 72 73 72 69 65 57 56 56 57 62 67 68 69 69 68 69 71 72 72 72 75 76 72 70 68 59 60 63 72 70 70 70 69 69 69 67
52 53 54 56 57 56 56 57 57 58 60 60 60 60 60 59 60 61 60 61 62 62 63 64 64 66 67 67 68 68 68 68 68 68 67 68 69 69 69 69 69 70 70 70 70 70 69 69 70 71 72 69 67 66 62 54 55 56 59 66 70 72 71 70 70 70 71 71 71 72 72 65 62 58 57 56 58 61 69 69 70 69 68 68 67
52 54 56 53 53 54 54 55 56 57 57 58 59 58 59 59 59 59 59 61 62 62 62 62 62 62 65 66 66 67 67 68 68 67 67 66 66 68 69 69 69 68 68 68 69 69 70 70 70 70 69 66 67 65 62 53 53 53 56 61 69 71 71 71 70 71 71 71 70 69 68 64 58 57 55 54 54 58 65 69 69 69 70 69 67
57 57 55 52 53 54 55 55 55 56 56 56 57 58 58 58 58 58 60 61 60 60 60 61 61 62 62 63 65 65 65 64 64 63 62 62 62 62 66 69 69 68 68 68 68 68 67 66 66 66 66 66 67 67 65 58 54 53 53 56 64 69 71 70 71 70 70 70 70 69 67 64 57 56 55 53 53 56 61 67 66 61 58 60 67
53 54 56 54 54 54 55 55 55 55 55 56 57 57 57 56 56 58 58 60 59 58 59 60 60 60 61 61 61 61 62 61 61 61 60 59 59 60 60 63 67 68 67 67 66 66 65 64 64 64 65 65 65 66 64 64 57 54 53 54 55 61 62 70 70 70 70 70 70 70 69 65 56 54 52 52 52 54 61 63 57 55 57 59 65
54 55 56 57 54 55 55 55 55 55 55 55 56 57 57 56 55 58 59 60 59 58 58 59 60 58 59 59 59 59 59 58 59 59 59 59 59 59 59 59 62 67 66 65 64 64 63 63 63 63 62 62 62 63 63 63 62 56 54 53 55 56 57 65 70 69 69 69 69 69 69 58 52 49 49 51 53 58 62 55 54 56 59 62 66
52 54 56 55 54 54 54 54 55 55 55 54 54 54 56 55 55 58 59 59 60 60 59 58 58 57 56 55 56 56 56 56 56 57 57 58 58 59 59 59 61 62 65 64 63 63 63 63 62 60 60 60 60 60 60 61 61 61 56 54 55 56 58 58 66 68 68 64 59 55 53 52 52 49 49 51 53 55 53 53 53 56 64 65 65
53 53 54 54 54 54 54 54 54 54 55 56 54 54 55 54 56 56 58 60 58 58 59 58 59 59 56 55 53 53 53 54 55 55 57 56 57 58 59 60 60 63 64 64 63 63 64 62 59 57 58 57 57 57 57 58 59 60 60 58 57 57 62 62 62 61 60 58 57 56 55 54 54 54 60 63 65 65 60 60 58 61 66 63 60
52 54 54 53 53 53 53 53 53 53 53 54 54 54 55 55 55 55 57 59 58 57 57 57 57 59 59 57 54 54 53 54 54 54 53 54 55 56 57 59 58 60 63 65 65 64 62 60 58 57 57 57 55 54 54 54 54 54 56 58 58 59 60 60 60 60 60 61 63 63 62 59 61 62 64 64 66 66 66 65 64 62 60 60 60
52 53 53 51 51 51 52 52 52 51 51 53 53 53 54 54 54 55 56 59 59 58 55 55 56 58 60 57 57 57 54 52 53 54 53 53 54 56 56 56 55 56 59 60 60 60 60 58 56 55 55 55 54 54 53 52 53 52 52 53 55 55 55 56 56 55 56 59 62 64 62 63 64 64 65 63 61 62 62 62 61 61 61 62 62
52 53 53 50 52 52 52 53 51 50 50 51 51 52 53 53 54 54 55 59 59 59 58 56 57 57 58 59 57 54 52 51 51 52 52 52 52 53 55 55 54 53 55 58 57 58 57 56 54 53 54 53 53 52 53 48 50 47 48 49 51 51 50 53 55 51 55 60 60 60 62 63 64 63 60 58 58 58 59 59 58 56 56 55 56
51 54 52 52 54 52 52 52 50 49 50 52 50 50 51 53 53 54 54 57 58 58 56 56 58 58 58 58 59 57 55 53 51 51 51 52 52 47 47 53 53 52 49 48 53 56 57 56 54 53 53 51 51 52 48 42 40 40 41 42 42 41 41 48 50 49 54 57 57 57 59 62 62 60 57 57 57 57 56 56 56 57 56 55 55
52 52 51 52 52 54 52 51 50 51 51 52 52 50 49 51 52 53 53 53 55 56 56 55 58 58 59 58 58 57 57 56 54 53 52 53 50 51 44 44 48 50 46 43 43 45 48 52 57 54 52 48 48 45 41 40 40 39 39 39 39 39 40 42 44 53 59 58 56 56 57 60 62 59 57 57 57 56 55 55 55 55 56 56 56